Year,Month,Day,Hour,Minute,Value (Times are PST for insolation in W/m^2)
2017,03,31,00,00,0.00
2017,03,31,00,01,0.00
2017,03,31,00,02,0.00
2017,03,31,00,03,0.00
2017,03,31,00,04,0.00
2017,03,31,00,05,0.00
2017,03,31,00,06,0.00
2017,03,31,00,07,0.00
2017,03,31,00,08,0.00
2017,03,31,00,09,0.00
2017,03,31,00,10,0.00
2017,03,31,00,11,0.00
2017,03,31,00,12,0.00
2017,03,31,00,13,0.00
2017,03,31,00,14,0.00
2017,03,31,00,15,0.00
2017,03,31,00,16,0.00
2017,03,31,00,17,0.00
2017,03,31,00,18,0.00
2017,03,31,00,19,0.00
2017,03,31,00,20,0.00
2017,03,31,00,21,0.00
2017,03,31,00,22,0.00
2017,03,31,00,23,0.00
2017,03,31,00,24,0.00
2017,03,31,00,25,0.00
2017,03,31,00,26,0.00
2017,03,31,00,27,0.00
2017,03,31,00,28,0.00
2017,03,31,00,29,0.00
2017,03,31,00,30,0.00
2017,03,31,00,31,0.00
2017,03,31,00,32,0.00
2017,03,31,00,33,0.00
2017,03,31,00,34,0.00
2017,03,31,00,35,0.00
2017,03,31,00,36,0.00
2017,03,31,00,37,0.00
2017,03,31,00,38,0.00
2017,03,31,00,39,0.00
2017,03,31,00,40,0.00
2017,03,31,00,41,0.00
2017,03,31,00,42,0.00
2017,03,31,00,43,0.00
2017,03,31,00,44,0.00
2017,03,31,00,45,0.00
2017,03,31,00,46,0.00
2017,03,31,00,47,0.00
2017,03,31,00,48,0.00
2017,03,31,00,49,0.00
2017,03,31,00,50,0.00
2017,03,31,00,51,0.00
2017,03,31,00,52,0.00
2017,03,31,00,53,0.00
2017,03,31,00,54,0.00
2017,03,31,00,55,0.00
2017,03,31,00,56,0.00
2017,03,31,00,57,0.00
2017,03,31,00,58,0.00
2017,03,31,00,59,0.00
2017,03,31,01,00,0.00
2017,03,31,01,01,0.00
2017,03,31,01,02,0.00
2017,03,31,01,03,0.00
2017,03,31,01,04,0.00
2017,03,31,01,05,0.00
2017,03,31,01,06,0.00
2017,03,31,01,07,0.00
2017,03,31,01,08,0.00
2017,03,31,01,09,0.00
2017,03,31,01,10,0.00
2017,03,31,01,11,0.00
2017,03,31,01,12,0.00
2017,03,31,01,13,0.00
2017,03,31,01,14,0.00
2017,03,31,01,15,0.00
2017,03,31,01,16,0.00
2017,03,31,01,17,0.00
2017,03,31,01,18,0.00
2017,03,31,01,19,0.00
2017,03,31,01,20,0.00
2017,03,31,01,21,0.00
2017,03,31,01,22,0.00
2017,03,31,01,23,0.00
2017,03,31,01,24,0.00
2017,03,31,01,25,0.00
2017,03,31,01,26,0.00
2017,03,31,01,27,0.00
2017,03,31,01,28,0.00
2017,03,31,01,29,0.00
2017,03,31,01,30,0.00
2017,03,31,01,31,0.00
2017,03,31,01,32,0.00
2017,03,31,01,33,0.00
2017,03,31,01,34,0.00
2017,03,31,01,35,0.00
2017,03,31,01,36,0.00
2017,03,31,01,37,0.00
2017,03,31,01,38,0.00
2017,03,31,01,39,0.00
2017,03,31,01,40,0.00
2017,03,31,01,41,0.00
2017,03,31,01,42,0.00
2017,03,31,01,43,0.00
2017,03,31,01,44,0.00
2017,03,31,01,45,0.00
2017,03,31,01,46,0.00
2017,03,31,01,47,0.00
2017,03,31,01,48,0.00
2017,03,31,01,49,0.00
2017,03,31,01,50,0.00
2017,03,31,01,51,0.00
2017,03,31,01,52,0.00
2017,03,31,01,53,0.00
2017,03,31,01,54,0.00
2017,03,31,01,55,0.00
2017,03,31,01,56,0.00
2017,03,31,01,57,0.00
2017,03,31,01,58,0.00
2017,03,31,01,59,0.00
2017,03,31,02,00,0.00
2017,03,31,02,01,0.00
2017,03,31,02,02,0.00
2017,03,31,02,03,0.00
2017,03,31,02,04,0.00
2017,03,31,02,05,0.00
2017,03,31,02,06,0.00
2017,03,31,02,07,0.00
2017,03,31,02,08,0.00
2017,03,31,02,09,0.00
2017,03,31,02,10,0.00
2017,03,31,02,11,0.00
2017,03,31,02,12,0.00
2017,03,31,02,13,0.00
2017,03,31,02,14,0.00
2017,03,31,02,15,0.00
2017,03,31,02,16,0.00
2017,03,31,02,17,0.00
2017,03,31,02,18,0.00
2017,03,31,02,19,0.00
2017,03,31,02,20,0.00
2017,03,31,02,21,0.00
2017,03,31,02,22,0.00
2017,03,31,02,23,0.00
2017,03,31,02,24,0.00
2017,03,31,02,25,0.00
2017,03,31,02,26,0.00
2017,03,31,02,27,0.00
2017,03,31,02,28,0.00
2017,03,31,02,29,0.00
2017,03,31,02,30,0.00
2017,03,31,02,31,0.00
2017,03,31,02,32,0.00
2017,03,31,02,33,0.00
2017,03,31,02,34,0.00
2017,03,31,02,35,0.00
2017,03,31,02,36,0.00
2017,03,31,02,37,0.00
2017,03,31,02,38,0.00
2017,03,31,02,39,0.00
2017,03,31,02,40,0.00
2017,03,31,02,41,0.00
2017,03,31,02,42,0.00
2017,03,31,02,43,0.00
2017,03,31,02,44,0.00
2017,03,31,02,45,0.00
2017,03,31,02,46,0.00
2017,03,31,02,47,0.00
2017,03,31,02,48,0.00
2017,03,31,02,49,0.00
2017,03,31,02,50,0.00
2017,03,31,02,51,0.00
2017,03,31,02,52,0.00
2017,03,31,02,53,0.00
2017,03,31,02,54,0.00
2017,03,31,02,55,0.00
2017,03,31,02,56,0.00
2017,03,31,02,57,0.00
2017,03,31,02,58,0.00
2017,03,31,02,59,0.00
2017,03,31,03,00,0.00
2017,03,31,03,01,0.00
2017,03,31,03,02,0.00
2017,03,31,03,03,0.00
2017,03,31,03,04,0.00
2017,03,31,03,05,0.00
2017,03,31,03,06,0.00
2017,03,31,03,07,0.00
2017,03,31,03,08,0.00
2017,03,31,03,09,0.00
2017,03,31,03,10,0.00
2017,03,31,03,11,0.00
2017,03,31,03,12,0.00
2017,03,31,03,13,0.00
2017,03,31,03,14,0.00
2017,03,31,03,15,0.00
2017,03,31,03,16,0.00
2017,03,31,03,17,0.00
2017,03,31,03,18,0.00
2017,03,31,03,19,0.00
2017,03,31,03,20,0.00
2017,03,31,03,21,0.00
2017,03,31,03,22,0.00
2017,03,31,03,23,0.00
2017,03,31,03,24,0.00
2017,03,31,03,25,0.00
2017,03,31,03,26,0.00
2017,03,31,03,27,0.00
2017,03,31,03,28,0.00
2017,03,31,03,29,0.00
2017,03,31,03,30,0.00
2017,03,31,03,31,0.00
2017,03,31,03,32,0.00
2017,03,31,03,33,0.00
2017,03,31,03,34,0.00
2017,03,31,03,35,0.00
2017,03,31,03,36,0.00
2017,03,31,03,37,0.00
2017,03,31,03,38,0.00
2017,03,31,03,39,0.00
2017,03,31,03,40,0.00
2017,03,31,03,41,0.00
2017,03,31,03,42,0.00
2017,03,31,03,43,0.00
2017,03,31,03,44,0.00
2017,03,31,03,45,0.00
2017,03,31,03,46,0.00
2017,03,31,03,47,0.00
2017,03,31,03,48,0.00
2017,03,31,03,49,0.00
2017,03,31,03,50,0.00
2017,03,31,03,51,0.00
2017,03,31,03,52,0.00
2017,03,31,03,53,0.00
2017,03,31,03,54,0.00
2017,03,31,03,55,0.00
2017,03,31,03,56,0.00
2017,03,31,03,57,0.00
2017,03,31,03,58,0.00
2017,03,31,03,59,0.00
2017,03,31,04,00,0.00
2017,03,31,04,01,0.00
2017,03,31,04,02,0.00
2017,03,31,04,03,0.00
2017,03,31,04,04,0.00
2017,03,31,04,05,0.00
2017,03,31,04,06,0.00
2017,03,31,04,07,0.00
2017,03,31,04,08,0.00
2017,03,31,04,09,0.00
2017,03,31,04,10,0.00
2017,03,31,04,11,0.00
2017,03,31,04,12,0.00
2017,03,31,04,13,0.00
2017,03,31,04,14,0.00
2017,03,31,04,15,0.00
2017,03,31,04,16,0.00
2017,03,31,04,17,0.00
2017,03,31,04,18,0.00
2017,03,31,04,19,0.00
2017,03,31,04,20,0.00
2017,03,31,04,21,0.00
2017,03,31,04,22,0.00
2017,03,31,04,23,0.00
2017,03,31,04,24,0.00
2017,03,31,04,25,0.00
2017,03,31,04,26,0.00
2017,03,31,04,27,0.00
2017,03,31,04,28,0.00
2017,03,31,04,29,0.00
2017,03,31,04,30,0.00
2017,03,31,04,31,0.00
2017,03,31,04,32,0.00
2017,03,31,04,33,0.00
2017,03,31,04,34,0.00
2017,03,31,04,35,0.00
2017,03,31,04,36,0.00
2017,03,31,04,37,0.00
2017,03,31,04,38,0.00
2017,03,31,04,39,0.00
2017,03,31,04,40,0.00
2017,03,31,04,41,0.00
2017,03,31,04,42,0.00
2017,03,31,04,43,0.00
2017,03,31,04,44,0.00
2017,03,31,04,45,0.00
2017,03,31,04,46,0.00
2017,03,31,04,47,0.00
2017,03,31,04,48,0.00
2017,03,31,04,49,0.00
2017,03,31,04,50,0.00
2017,03,31,04,51,0.00
2017,03,31,04,52,0.00
2017,03,31,04,53,0.00
2017,03,31,04,54,0.00
2017,03,31,04,55,0.00
2017,03,31,04,56,0.00
2017,03,31,04,57,0.00
2017,03,31,04,58,0.00
2017,03,31,04,59,0.00
2017,03,31,05,00,0.00
2017,03,31,05,01,0.00
2017,03,31,05,02,0.00
2017,03,31,05,03,0.00
2017,03,31,05,04,0.00
2017,03,31,05,05,0.00
2017,03,31,05,06,0.00
2017,03,31,05,07,0.00
2017,03,31,05,08,0.00
2017,03,31,05,09,0.00
2017,03,31,05,10,0.00
2017,03,31,05,11,0.00
2017,03,31,05,12,0.00
2017,03,31,05,13,0.00
2017,03,31,05,14,0.00
2017,03,31,05,15,0.00
2017,03,31,05,16,0.00
2017,03,31,05,17,0.00
2017,03,31,05,18,0.00
2017,03,31,05,19,0.00
2017,03,31,05,20,0.00
2017,03,31,05,21,0.00
2017,03,31,05,22,0.00
2017,03,31,05,23,0.00
2017,03,31,05,24,0.00
2017,03,31,05,25,0.00
2017,03,31,05,26,0.00
2017,03,31,05,27,0.00
2017,03,31,05,28,0.00
2017,03,31,05,29,0.00
2017,03,31,05,30,0.00
2017,03,31,05,31,0.00
2017,03,31,05,32,0.00
2017,03,31,05,33,0.00
2017,03,31,05,34,0.00
2017,03,31,05,35,0.00
2017,03,31,05,36,0.00
2017,03,31,05,37,0.00
2017,03,31,05,38,0.00
2017,03,31,05,39,0.00
2017,03,31,05,40,0.00
2017,03,31,05,41,0.00
2017,03,31,05,42,0.00
2017,03,31,05,43,0.00
2017,03,31,05,44,0.00
2017,03,31,05,45,0.00
2017,03,31,05,46,0.00
2017,03,31,05,47,0.00
2017,03,31,05,48,0.00
2017,03,31,05,49,0.00
2017,03,31,05,50,0.00
2017,03,31,05,51,0.00
2017,03,31,05,52,0.00
2017,03,31,05,53,0.00
2017,03,31,05,54,0.00
2017,03,31,05,55,0.00
2017,03,31,05,56,0.00
2017,03,31,05,57,0.00
2017,03,31,05,58,0.00
2017,03,31,05,59,0.00
2017,03,31,06,00,0.00
2017,03,31,06,01,0.00
2017,03,31,06,02,0.00
2017,03,31,06,03,0.00
2017,03,31,06,04,0.00
2017,03,31,06,05,0.00
2017,03,31,06,06,0.00
2017,03,31,06,07,0.00
2017,03,31,06,08,0.00
2017,03,31,06,09,0.00
2017,03,31,06,10,0.00
2017,03,31,06,11,0.00
2017,03,31,06,12,0.00
2017,03,31,06,13,0.00
2017,03,31,06,14,0.00
2017,03,31,06,15,0.00
2017,03,31,06,16,0.00
2017,03,31,06,17,0.00
2017,03,31,06,18,0.00
2017,03,31,06,19,0.00
2017,03,31,06,20,0.00
2017,03,31,06,21,0.00
2017,03,31,06,22,0.00
2017,03,31,06,23,0.00
2017,03,31,06,24,0.00
2017,03,31,06,25,0.00
2017,03,31,06,26,0.00
2017,03,31,06,27,0.00
2017,03,31,06,28,0.00
2017,03,31,06,29,0.00
2017,03,31,06,30,0.00
2017,03,31,06,31,0.00
2017,03,31,06,32,0.00
2017,03,31,06,33,0.00
2017,03,31,06,34,0.00
2017,03,31,06,35,0.00
2017,03,31,06,36,0.00
2017,03,31,06,37,0.00
2017,03,31,06,38,0.00
2017,03,31,06,39,0.00
2017,03,31,06,40,0.00
2017,03,31,06,41,0.00
2017,03,31,06,42,0.00
2017,03,31,06,43,0.00
2017,03,31,06,44,0.00
2017,03,31,06,45,0.00
2017,03,31,06,46,0.00
2017,03,31,06,47,0.00
2017,03,31,06,48,0.00
2017,03,31,06,49,0.00
2017,03,31,06,50,2.00
2017,03,31,06,51,2.20
2017,03,31,06,52,0.00
2017,03,31,06,53,0.00
2017,03,31,06,54,4.30
2017,03,31,06,55,5.00
2017,03,31,06,56,5.60
2017,03,31,06,57,7.00
2017,03,31,06,58,7.00
2017,03,31,06,59,8.20
2017,03,31,07,00,9.00
2017,03,31,07,01,10.80
2017,03,31,07,02,11.10
2017,03,31,07,03,12.00
2017,03,31,07,04,12.80
2017,03,31,07,05,14.00
2017,03,31,07,06,15.30
2017,03,31,07,07,17.60
2017,03,31,07,08,18.00
2017,03,31,07,09,19.30
2017,03,31,07,10,21.00
2017,03,31,07,11,21.80
2017,03,31,07,12,24.10
2017,03,31,07,13,25.00
2017,03,31,07,14,25.80
2017,03,31,07,15,26.00
2017,03,31,07,16,28.00
2017,03,31,07,17,28.50
2017,03,31,07,18,30.00
2017,03,31,07,19,31.00
2017,03,31,07,20,32.00
2017,03,31,07,21,32.80
2017,03,31,07,22,34.70
2017,03,31,07,23,35.30
2017,03,31,07,24,37.50
2017,03,31,07,25,39.40
2017,03,31,07,26,41.10
2017,03,31,07,27,43.30
2017,03,31,07,28,45.60
2017,03,31,07,29,46.00
2017,03,31,07,30,47.30
2017,03,31,07,31,49.00
2017,03,31,07,32,49.80
2017,03,31,07,33,52.00
2017,03,31,07,34,55.00
2017,03,31,07,35,57.60
2017,03,31,07,36,59.80
2017,03,31,07,37,60.00
2017,03,31,07,38,60.00
2017,03,31,07,39,60.00
2017,03,31,07,40,60.00
2017,03,31,07,41,58.60
2017,03,31,07,42,59.60
2017,03,31,07,43,58.20
2017,03,31,07,44,54.60
2017,03,31,07,45,59.10
2017,03,31,07,46,63.30
2017,03,31,07,47,65.00
2017,03,31,07,48,66.30
2017,03,31,07,49,68.50
2017,03,31,07,50,76.20
2017,03,31,07,51,88.00
2017,03,31,07,52,102.40
2017,03,31,07,53,110.90
2017,03,31,07,54,117.80
2017,03,31,07,55,125.40
2017,03,31,07,56,132.50
2017,03,31,07,57,140.70
2017,03,31,07,58,149.90
2017,03,31,07,59,156.50
2017,03,31,08,00,164.80
2017,03,31,08,01,179.00
2017,03,31,08,02,195.10
2017,03,31,08,03,205.60
2017,03,31,08,04,179.90
2017,03,31,08,05,188.70
2017,03,31,08,06,160.20
2017,03,31,08,07,122.80
2017,03,31,08,08,112.00
2017,03,31,08,09,108.40
2017,03,31,08,10,104.80
2017,03,31,08,11,104.00
2017,03,31,08,12,105.00
2017,03,31,08,13,105.60
2017,03,31,08,14,107.00
2017,03,31,08,15,109.00
2017,03,31,08,16,112.20
2017,03,31,08,17,113.80
2017,03,31,08,18,116.00
2017,03,31,08,19,120.50
2017,03,31,08,20,124.00
2017,03,31,08,21,127.40
2017,03,31,08,22,128.00
2017,03,31,08,23,128.00
2017,03,31,08,24,128.00
2017,03,31,08,25,128.00
2017,03,31,08,26,130.00
2017,03,31,08,27,130.00
2017,03,31,08,28,130.00
2017,03,31,08,29,130.00
2017,03,31,08,30,128.60
2017,03,31,08,31,127.20
2017,03,31,08,32,125.20
2017,03,31,08,33,125.30
2017,03,31,08,34,127.80
2017,03,31,08,35,131.90
2017,03,31,08,36,138.20
2017,03,31,08,37,144.20
2017,03,31,08,38,149.80
2017,03,31,08,39,155.30
2017,03,31,08,40,163.80
2017,03,31,08,41,169.80
2017,03,31,08,42,172.80
2017,03,31,08,43,175.10
2017,03,31,08,44,177.40
2017,03,31,08,45,176.50
2017,03,31,08,46,174.10
2017,03,31,08,47,171.60
2017,03,31,08,48,167.20
2017,03,31,08,49,161.20
2017,03,31,08,50,155.50
2017,03,31,08,51,149.90
2017,03,31,08,52,144.80
2017,03,31,08,53,139.50
2017,03,31,08,54,137.00
2017,03,31,08,55,137.60
2017,03,31,08,56,141.80
2017,03,31,08,57,149.30
2017,03,31,08,58,157.60
2017,03,31,08,59,163.80
2017,03,31,09,00,170.40
2017,03,31,09,01,175.00
2017,03,31,09,02,182.80
2017,03,31,09,03,191.00
2017,03,31,09,04,196.10
2017,03,31,09,05,194.30
2017,03,31,09,06,189.00
2017,03,31,09,07,179.90
2017,03,31,09,08,175.40
2017,03,31,09,09,171.80
2017,03,31,09,10,170.30
2017,03,31,09,11,168.00
2017,03,31,09,12,167.00
2017,03,31,09,13,168.50
2017,03,31,09,14,170.90
2017,03,31,09,15,174.70
2017,03,31,09,16,180.20
2017,03,31,09,17,183.70
2017,03,31,09,18,185.50
2017,03,31,09,19,185.40
2017,03,31,09,20,185.00
2017,03,31,09,21,185.00
2017,03,31,09,22,182.60
2017,03,31,09,23,177.80
2017,03,31,09,24,170.40
2017,03,31,09,25,161.50
2017,03,31,09,26,154.80
2017,03,31,09,27,149.80
2017,03,31,09,28,149.00
2017,03,31,09,29,151.30
2017,03,31,09,30,153.80
2017,03,31,09,31,158.40
2017,03,31,09,32,165.70
2017,03,31,09,33,173.60
2017,03,31,09,34,179.90
2017,03,31,09,35,184.60
2017,03,31,09,36,188.00
2017,03,31,09,37,188.00
2017,03,31,09,38,188.80
2017,03,31,09,39,189.00
2017,03,31,09,40,186.70
2017,03,31,09,41,183.70
2017,03,31,09,42,181.20
2017,03,31,09,43,179.00
2017,03,31,09,44,179.50
2017,03,31,09,45,183.80
2017,03,31,09,46,190.60
2017,03,31,09,47,197.10
2017,03,31,09,48,201.30
2017,03,31,09,49,203.80
2017,03,31,09,50,201.70
2017,03,31,09,51,199.20
2017,03,31,09,52,196.20
2017,03,31,09,53,192.20
2017,03,31,09,54,187.50
2017,03,31,09,55,182.20
2017,03,31,09,56,178.30
2017,03,31,09,57,176.00
2017,03,31,09,58,178.10
2017,03,31,09,59,186.30
2017,03,31,10,00,196.20
2017,03,31,10,01,202.50
2017,03,31,10,02,204.00
2017,03,31,10,03,202.20
2017,03,31,10,04,199.60
2017,03,31,10,05,195.80
2017,03,31,10,06,190.50
2017,03,31,10,07,187.00
2017,03,31,10,08,188.70
2017,03,31,10,09,195.60
2017,03,31,10,10,203.30
2017,03,31,10,11,205.40
2017,03,31,10,12,199.50
2017,03,31,10,13,186.40
2017,03,31,10,14,174.10
2017,03,31,10,15,174.20
2017,03,31,10,16,185.50
2017,03,31,10,17,202.40
2017,03,31,10,18,226.40
2017,03,31,10,19,252.50
2017,03,31,10,20,281.50
2017,03,31,10,21,308.10
2017,03,31,10,22,327.10
2017,03,31,10,23,330.50
2017,03,31,10,24,321.00
2017,03,31,10,25,328.00
2017,03,31,10,26,357.20
2017,03,31,10,27,414.40
2017,03,31,10,28,436.00
2017,03,31,10,29,382.80
2017,03,31,10,30,336.00
2017,03,31,10,31,329.90
2017,03,31,10,32,351.90
2017,03,31,10,33,380.30
2017,03,31,10,34,379.00
2017,03,31,10,35,413.00
2017,03,31,10,36,422.20
2017,03,31,10,37,443.60
2017,03,31,10,38,433.80
2017,03,31,10,39,448.40
2017,03,31,10,40,429.80
2017,03,31,10,41,407.00
2017,03,31,10,42,380.50
2017,03,31,10,43,354.10
2017,03,31,10,44,326.20
2017,03,31,10,45,298.60
2017,03,31,10,46,281.30
2017,03,31,10,47,270.80
2017,03,31,10,48,267.80
2017,03,31,10,49,272.50
2017,03,31,10,50,283.10
2017,03,31,10,51,293.40
2017,03,31,10,52,301.80
2017,03,31,10,53,312.60
2017,03,31,10,54,324.10
2017,03,31,10,55,333.20
2017,03,31,10,56,343.70
2017,03,31,10,57,355.10
2017,03,31,10,58,364.60
2017,03,31,10,59,365.50
2017,03,31,11,00,353.60
2017,03,31,11,01,339.00
2017,03,31,11,02,308.10
2017,03,31,11,03,278.20
2017,03,31,11,04,254.30
2017,03,31,11,05,239.80
2017,03,31,11,06,232.40
2017,03,31,11,07,230.30
2017,03,31,11,08,234.10
2017,03,31,11,09,244.40
2017,03,31,11,10,261.50
2017,03,31,11,11,284.60
2017,03,31,11,12,309.20
2017,03,31,11,13,336.90
2017,03,31,11,14,365.90
2017,03,31,11,15,402.60
2017,03,31,11,16,439.00
2017,03,31,11,17,556.90
2017,03,31,11,18,663.00
2017,03,31,11,19,525.80
2017,03,31,11,20,411.00
2017,03,31,11,21,386.00
2017,03,31,11,22,348.50
2017,03,31,11,23,332.00
2017,03,31,11,24,318.00
2017,03,31,11,25,307.10
2017,03,31,11,26,300.20
2017,03,31,11,27,301.00
2017,03,31,11,28,304.80
2017,03,31,11,29,310.80
2017,03,31,11,30,318.80
2017,03,31,11,31,327.50
2017,03,31,11,32,339.10
2017,03,31,11,33,361.40
2017,03,31,11,34,381.30
2017,03,31,11,35,395.60
2017,03,31,11,36,388.50
2017,03,31,11,37,374.40
2017,03,31,11,38,338.00
2017,03,31,11,39,326.50
2017,03,31,11,40,331.80
2017,03,31,11,41,350.20
2017,03,31,11,42,333.00
2017,03,31,11,43,345.00
2017,03,31,11,44,368.30
2017,03,31,11,45,387.00
2017,03,31,11,46,433.70
2017,03,31,11,47,466.00
2017,03,31,11,48,424.90
2017,03,31,11,49,355.00
2017,03,31,11,50,313.20
2017,03,31,11,51,309.20
2017,03,31,11,52,317.00
2017,03,31,11,53,332.60
2017,03,31,11,54,406.50
2017,03,31,11,55,437.10
2017,03,31,11,56,446.00
2017,03,31,11,57,469.00
2017,03,31,11,58,566.80
2017,03,31,11,59,610.00
2017,03,31,12,00,610.00
2017,03,31,12,01,655.00
2017,03,31,12,02,580.00
2017,03,31,12,03,640.00
2017,03,31,12,04,666.80
2017,03,31,12,05,747.00
2017,03,31,12,06,672.90
2017,03,31,12,07,543.70
2017,03,31,12,08,491.80
2017,03,31,12,09,483.20
2017,03,31,12,10,441.80
2017,03,31,12,11,414.20
2017,03,31,12,12,396.00
2017,03,31,12,13,379.30
2017,03,31,12,14,365.50
2017,03,31,12,15,354.00
2017,03,31,12,16,343.90
2017,03,31,12,17,335.30
2017,03,31,12,18,327.00
2017,03,31,12,19,318.40
2017,03,31,12,20,309.50
2017,03,31,12,21,301.50
2017,03,31,12,22,296.00
2017,03,31,12,23,292.20
2017,03,31,12,24,290.30
2017,03,31,12,25,292.80
2017,03,31,12,26,296.60
2017,03,31,12,27,300.10
2017,03,31,12,28,301.00
2017,03,31,12,29,299.50
2017,03,31,12,30,292.70
2017,03,31,12,31,281.60
2017,03,31,12,32,272.20
2017,03,31,12,33,267.00
2017,03,31,12,34,269.50
2017,03,31,12,35,274.60
2017,03,31,12,36,280.00
2017,03,31,12,37,292.60
2017,03,31,12,38,311.10
2017,03,31,12,39,323.00
2017,03,31,12,40,331.60
2017,03,31,12,41,350.20
2017,03,31,12,42,369.50
2017,03,31,12,43,405.80
2017,03,31,12,44,424.00
2017,03,31,12,45,402.80
2017,03,31,12,46,398.10
2017,03,31,12,47,405.70
2017,03,31,12,48,408.90
2017,03,31,12,49,404.60
2017,03,31,12,50,400.00
2017,03,31,12,51,392.70
2017,03,31,12,52,379.80
2017,03,31,12,53,369.80
2017,03,31,12,54,354.40
2017,03,31,12,55,339.00
2017,03,31,12,56,327.70
2017,03,31,12,57,323.40
2017,03,31,12,58,326.60
2017,03,31,12,59,334.70
2017,03,31,13,00,340.50
2017,03,31,13,01,345.40
2017,03,31,13,02,347.00
2017,03,31,13,03,348.00
2017,03,31,13,04,351.80
2017,03,31,13,05,361.40
2017,03,31,13,06,366.60
2017,03,31,13,07,360.70
2017,03,31,13,08,351.00
2017,03,31,13,09,349.00
2017,03,31,13,10,353.20
2017,03,31,13,11,358.80
2017,03,31,13,12,363.60
2017,03,31,13,13,368.70
2017,03,31,13,14,366.70
2017,03,31,13,15,366.00
2017,03,31,13,16,367.50
2017,03,31,13,17,376.30
2017,03,31,13,18,391.20
2017,03,31,13,19,402.90
2017,03,31,13,20,411.20
2017,03,31,13,21,420.70
2017,03,31,13,22,430.30
2017,03,31,13,23,451.00
2017,03,31,13,24,461.50
2017,03,31,13,25,466.50
2017,03,31,13,26,455.50
2017,03,31,13,27,450.60
2017,03,31,13,28,452.00
2017,03,31,13,29,446.00
2017,03,31,13,30,443.50
2017,03,31,13,31,444.30
2017,03,31,13,32,434.80
2017,03,31,13,33,423.00
2017,03,31,13,34,414.40
2017,03,31,13,35,412.50
2017,03,31,13,36,419.70
2017,03,31,13,37,429.30
2017,03,31,13,38,454.00
2017,03,31,13,39,441.90
2017,03,31,13,40,431.70
2017,03,31,13,41,431.50
2017,03,31,13,42,436.80
2017,03,31,13,43,446.20
2017,03,31,13,44,451.10
2017,03,31,13,45,458.60
2017,03,31,13,46,472.00
2017,03,31,13,47,496.80
2017,03,31,13,48,545.00
2017,03,31,13,49,545.00
2017,03,31,13,50,570.20
2017,03,31,13,51,608.00
2017,03,31,13,52,515.60
2017,03,31,13,53,493.20
2017,03,31,13,54,475.20
2017,03,31,13,55,471.30
2017,03,31,13,56,469.70
2017,03,31,13,57,463.60
2017,03,31,13,58,458.70
2017,03,31,13,59,449.50
2017,03,31,14,00,452.50
2017,03,31,14,01,468.50
2017,03,31,14,02,495.10
2017,03,31,14,03,514.20
2017,03,31,14,04,458.80
2017,03,31,14,05,427.20
2017,03,31,14,06,397.40
2017,03,31,14,07,372.80
2017,03,31,14,08,347.40
2017,03,31,14,09,330.50
2017,03,31,14,10,321.50
2017,03,31,14,11,320.80
2017,03,31,14,12,325.70
2017,03,31,14,13,335.50
2017,03,31,14,14,350.20
2017,03,31,14,15,370.90
2017,03,31,14,16,361.30
2017,03,31,14,17,356.00
2017,03,31,14,18,352.60
2017,03,31,14,19,351.00
2017,03,31,14,20,350.00
2017,03,31,14,21,350.00
2017,03,31,14,22,352.70
2017,03,31,14,23,359.70
2017,03,31,14,24,370.30
2017,03,31,14,25,380.60
2017,03,31,14,26,381.50
2017,03,31,14,27,385.70
2017,03,31,14,28,391.00
2017,03,31,14,29,390.20
2017,03,31,14,30,438.60
2017,03,31,14,31,420.00
2017,03,31,14,32,408.80
2017,03,31,14,33,409.00
2017,03,31,14,34,419.30
2017,03,31,14,35,424.20
2017,03,31,14,36,426.60
2017,03,31,14,37,429.00
2017,03,31,14,38,430.80
2017,03,31,14,39,436.00
2017,03,31,14,40,444.80
2017,03,31,14,41,463.10
2017,03,31,14,42,472.10
2017,03,31,14,43,480.80
2017,03,31,14,44,480.30
2017,03,31,14,45,482.20
2017,03,31,14,46,483.80
2017,03,31,14,47,492.30
2017,03,31,14,48,517.30
2017,03,31,14,49,534.00
2017,03,31,14,50,557.40
2017,03,31,14,51,629.80
2017,03,31,14,52,625.50
2017,03,31,14,53,597.90
2017,03,31,14,54,609.50
2017,03,31,14,55,562.40
2017,03,31,14,56,520.80
2017,03,31,14,57,510.50
2017,03,31,14,58,511.80
2017,03,31,14,59,519.50
2017,03,31,15,00,513.10
2017,03,31,15,01,517.70
2017,03,31,15,02,519.30
2017,03,31,15,03,522.90
2017,03,31,15,04,503.20
2017,03,31,15,05,458.40
2017,03,31,15,06,408.40
2017,03,31,15,07,386.00
2017,03,31,15,08,371.00
2017,03,31,15,09,348.40
2017,03,31,15,10,325.80
2017,03,31,15,11,322.20
2017,03,31,15,12,326.70
2017,03,31,15,13,325.00
2017,03,31,15,14,323.90
2017,03,31,15,15,324.50
2017,03,31,15,16,327.00
2017,03,31,15,17,330.80
2017,03,31,15,18,338.30
2017,03,31,15,19,360.00
2017,03,31,15,20,377.00
2017,03,31,15,21,375.80
2017,03,31,15,22,370.10
2017,03,31,15,23,377.50
2017,03,31,15,24,385.50
2017,03,31,15,25,378.90
2017,03,31,15,26,361.60
2017,03,31,15,27,344.50
2017,03,31,15,28,326.40
2017,03,31,15,29,303.50
2017,03,31,15,30,288.10
2017,03,31,15,31,285.00
2017,03,31,15,32,281.40
2017,03,31,15,33,276.50
2017,03,31,15,34,257.20
2017,03,31,15,35,238.80
2017,03,31,15,36,230.40
2017,03,31,15,37,230.90
2017,03,31,15,38,229.60
2017,03,31,15,39,220.90
2017,03,31,15,40,219.60
2017,03,31,15,41,233.00
2017,03,31,15,42,247.80
2017,03,31,15,43,257.80
2017,03,31,15,44,262.60
2017,03,31,15,45,264.80
2017,03,31,15,46,265.00
2017,03,31,15,47,261.40
2017,03,31,15,48,256.20
2017,03,31,15,49,247.70
2017,03,31,15,50,236.20
2017,03,31,15,51,224.10
2017,03,31,15,52,220.20
2017,03,31,15,53,220.90
2017,03,31,15,54,227.80
2017,03,31,15,55,233.50
2017,03,31,15,56,238.70
2017,03,31,15,57,240.00
2017,03,31,15,58,237.10
2017,03,31,15,59,234.50
2017,03,31,16,00,230.40
2017,03,31,16,01,226.70
2017,03,31,16,02,224.00
2017,03,31,16,03,218.20
2017,03,31,16,04,210.00
2017,03,31,16,05,201.40
2017,03,31,16,06,194.40
2017,03,31,16,07,188.50
2017,03,31,16,08,180.20
2017,03,31,16,09,174.80
2017,03,31,16,10,172.00
2017,03,31,16,11,172.00
2017,03,31,16,12,170.10
2017,03,31,16,13,167.50
2017,03,31,16,14,167.00
2017,03,31,16,15,166.70
2017,03,31,16,16,165.50
2017,03,31,16,17,167.00
2017,03,31,16,18,167.00
2017,03,31,16,19,167.00
2017,03,31,16,20,171.00
2017,03,31,16,21,177.70
2017,03,31,16,22,181.00
2017,03,31,16,23,180.10
2017,03,31,16,24,175.60
2017,03,31,16,25,169.20
2017,03,31,16,26,165.70
2017,03,31,16,27,166.50
2017,03,31,16,28,168.80
2017,03,31,16,29,171.10
2017,03,31,16,30,173.00
2017,03,31,16,31,178.80
2017,03,31,16,32,189.30
2017,03,31,16,33,205.40
2017,03,31,16,34,220.60
2017,03,31,16,35,229.30
2017,03,31,16,36,229.20
2017,03,31,16,37,223.80
2017,03,31,16,38,218.30
2017,03,31,16,39,214.40
2017,03,31,16,40,213.00
2017,03,31,16,41,213.00
2017,03,31,16,42,213.90
2017,03,31,16,43,212.70
2017,03,31,16,44,210.50
2017,03,31,16,45,207.00
2017,03,31,16,46,201.50
2017,03,31,16,47,195.20
2017,03,31,16,48,189.20
2017,03,31,16,49,181.40
2017,03,31,16,50,175.40
2017,03,31,16,51,171.20
2017,03,31,16,52,167.30
2017,03,31,16,53,163.40
2017,03,31,16,54,159.40
2017,03,31,16,55,155.80
2017,03,31,16,56,153.10
2017,03,31,16,57,153.40
2017,03,31,16,58,157.10
2017,03,31,16,59,162.00
2017,03,31,17,00,167.00
2017,03,31,17,01,169.00
2017,03,31,17,02,169.00
2017,03,31,17,03,169.00
2017,03,31,17,04,169.00
2017,03,31,17,05,169.90
2017,03,31,17,06,172.80
2017,03,31,17,07,175.10
2017,03,31,17,08,176.00
2017,03,31,17,09,176.00
2017,03,31,17,10,177.80
2017,03,31,17,11,181.80
2017,03,31,17,12,187.20
2017,03,31,17,13,190.00